This is the latest recevied weather packets stored in our database for station/object GBTWP-2. If no packets are shown the sender has not sent any weather packets the latest 10 day(s).
| Time | Temp. | Humidity | Pressure | Rain* | Wind** | Luminosity | Snow |
|---|---|---|---|---|---|---|---|
| 1777590605 | 10° C | 47% | 1016.1 hPa | 0 mm | - | 32 W/m² | - |
| 1777590305 | 10° C | 45% | 1016 hPa | 0 mm | - | 33 W/m² | - |
| 1777590005 | 10° C | 45% | 1016 hPa | 0 mm | - | 35 W/m² | - |
| 1777589705 | 10.56° C | 45% | 1016.1 hPa | 0 mm | - | 40 W/m² | - |
| 1777589405 | 10.56° C | 48% | 1016 hPa | 0 mm | - | 45 W/m² | - |
| 1777589105 | 10° C | 47% | 1016.3 hPa | 0 mm | - | 44 W/m² | - |
| 1777588806 | 10° C | 44% | 1016.3 hPa | 0 mm | - | 43 W/m² | - |
| 1777587905 | 10° C | 47% | 1016.3 hPa | 0 mm | - | 44 W/m² | - |
| 1777587302 | 10° C | 46% | 1016.3 hPa | 0 mm | - | 47 W/m² | - |
| 1777587005 | 10° C | 46% | 1016.3 hPa | 0 mm | - | 56 W/m² | - |
| 1777585206 | 10.56° C | 46% | 1016.2 hPa | 0 mm | - | 73 W/m² | - |
| 1777584905 | 10.56° C | 47% | 1016 hPa | 0 mm | - | 70 W/m² | - |
| 1777584605 | 11.67° C | 44% | 1015.9 hPa | 0 mm | - | 61 W/m² | - |
| 1777584302 | 11.11° C | 47% | 1016.2 hPa | 0 mm | - | 114 W/m² | - |
| 1777584005 | 10.56° C | 48% | 1016.1 hPa | 0 mm | - | 94 W/m² | - |
| 1777583702 | 10° C | 46% | 1016.2 hPa | 0 mm | - | 91 W/m² | - |
| 1777583406 | 10.56° C | 44% | 1016.2 hPa | 0 mm | - | 78 W/m² | - |
| 1777583105 | 10.56° C | 45% | 1016.3 hPa | 0 mm | - | 99 W/m² | - |
| 1777582805 | 10.56° C | 45% | 1016.4 hPa | 0 mm | - | 90 W/m² | - |
| 1777582505 | 10.56° C | 50% | 1016.2 hPa | 0 mm | - | 99 W/m² | - |
| 1777582205 | 11.11° C | 44% | 1016.4 hPa | 0 mm | - | 102 W/m² | - |
| 1777581305 | 10° C | 46% | 1016.4 hPa | 0 mm | - | 89 W/m² | - |
| 1777580405 | 10.56° C | 50% | 1016.2 hPa | 0 mm | - | 113 W/m² | - |
| 1777579805 | 10.56° C | 47% | 1016.4 hPa | 0 mm | - | 104 W/m² | - |
| 1777579505 | 11.11° C | 49% | 1016.5 hPa | 0 mm | - | 96 W/m² | - |
* Rain latest hour (hover to see other rain measurements)
** Current wind speed in m/s (hover to see current wind gust speed)